Location: Poughquag
(41.6090°N, 73.6820°W)
Time: 12:26:55
(UTC-04:00)

DIWATA 2B (PO-101) - Pass Details

Date: 07 June 2024
Orbit: 574 x 588 km, 98.1° (Epoch: 14 June)

Event Time Altitude Azimuth Distance (km) Brightness Sun altitude
Rises 03:24:06 0° 130° (SE) 2,779 ? -16.8°
Reaches altitude 10° 03:26:41 10° 113° (ESE) 1,883 ? -16.5°
Maximum altitude 03:29:38 20° 66° (ENE) 1,375 ? -16.2°
Drops below altitude 10° 03:32:35 10° 20° (NNE) 1,891 ? -15.8°
Sets 03:35:11 0° 3° (N) 2,794 ? -15.5°
